User: anonymous   Login
Location: Unspecified
(0.0000°N, 0.0000°E)
Time: 22:06:39
(UTC+00:00)
Language:

APRIZESAT 6 - Orbit

View from above orbital plane
View from above orbital plane
View from above satellite
View from above satellite

Ground track
Ground track

The orbit data is extracted from the following two-line orbital elements,

1 37793U 11044F   17268.32742220  .00000135  00000-0  29593-4 0  9996
2 37793  98.3026  38.7860 0048222 116.5715 302.4286 14.72240525328005
Epoch (UTC): 25 September 2017 07:51:29
Eccentricity: 0.0048222
inclination: 98.3026°
perigee height: 620 km
apogee height: 688 km
right ascension of ascending node: 38.7860°
argument of perigee: 116.5715°
revolutions per day: 14.72240525
mean anomaly at epoch: 302.4286°
orbit number at epoch: 32800

The dashed part of the orbit path shows where the satellite is in the earth's shadow,  

DLR